Regional Weather Roundup
Issued by NWS Grand Forks, ND

Home | Current Version | Previous Version | Text Only | Print | Product List | Glossary On
Versions: 1 2 3 4 5 6 7 8 9 10 11 12 13 14 15 16 17 18 19 20 21 22 23 24 25 26 27 28 29 30 31 32 33 34 35 36 37 38 39 40 41 42 43 44 45 46 47 48 49 50
000
ASUS43 KFGF 290110
RWRFGF
PRAIRIE TO PINES  WEATHER ROUNDUP
NATIONAL WEATHER SERVICE EASTERN NORTH DAKOTA/GRAND FORKS ND
700 PM CST FRI NOV 28 2014

 **SATELLITE DATA USED TO AUGMENT SKY COVER AT AUTOMATED STATIONS**
 *****  WEATHER ACROSS EASTERN NORTH DAKOTA  *****

CITY           SKY/WX    TMP DP  RH WIND       PRES   REMARKS
GRAND FORKS    CLOUDY    16  10  79 SE6       29.71F WCI   7
GRAND FRKS AFB MOCLDY    14  10  86 SE7       29.71F WCI   4
GRAND FRKS NWS   N/A     16 N/A N/A SE9         N/A  WCI   4
DEVILS LAKE    CLOUDY    12   1  62 SE21      29.56F WCI  -6
FARGO          PTCLDY    19  11  70 SE10      29.73F WCI   7
WAHPETON ARPT  CLOUDY    19  14  79 SE13      29.74S WCI   7
$$

 ***** WEATHER ACROSS CENTRAL AND WESTERN NORTH DAKOTA  *****

CITY           SKY/WX    TMP DP  RH WIND       PRES   REMARKS
BISMARCK       CLOUDY    18  14  84 E7        29.54F WCI   9
MINOT          MOCLDY    11   7  84 SE7       29.49F WCI   0
JAMESTOWN      CLOUDY    13  10  88 SE13      29.61F WCI  -2
MINOT AFB      MOCLDY    10   8  89 SE10      29.50F WCI  -4
GARRISON         N/A     14  11  87 SE9       29.49F WCI   2
WILLISTON      CLOUDY    24  19  81 CALM      29.41F
DICKINSON      MOCLDY    40  32  73 S14       29.42F
HETTINGER      PTCLDY    41  31  67 CALM      29.48F
$$

 *****  OTHER AIRPORT OBSERVATIONS IN OUR AREA  *****

CITY           SKY/WX    TMP DP  RH WIND       PRES   REMARKS
WALHALLA         N/A     14  12  92 SE14      29.69F WCI  -1
GRAFTON AIRPOR CLOUDY    16  10  79 SE10      29.72F WCI   3
VALLEY CITY AR CLOUDY    14  14 100 SE15      29.63F WCI  -1
CANDO          CLOUDY    12   9  85 SE17G24   29.58F WCI  -5
CAVALIER APRT  CLOUDY    16  10  79 SE13      29.69F WCI   2
GWINNER        MOCLDY    19  16  86 SE14      29.68F WCI   6
ROLLA          FLURRIES  10   9  92 SE14      29.57S WCI  -5
 ***** THE ABOVE OBSERVATIONS ARE NON NWS ARE NOT QUALITY
       CONTROLLED AND MAY MIS-REPORT RAIN FOR SNOW...
$$

  *****  WEATHER ACROSS NORTHERN MINNESOTA  *****

CITY           SKY/WX    TMP DP  RH WIND       PRES   REMARKS
FLAG ISLAND    FLURRIES  14   9  79 E9        29.76F WCI   2
WARROAD        LGT SNOW  16  10  79 SE9       29.75F WCI   4
ROSEAU         FLURRIES  18  12  79 SE9       29.74F WCI   6
HALLOCK        CLOUDY    18  10  73 SE15      29.71F WCI   3
THF RVR FALLS  CLOUDY    16  10  79 SE14      29.72F WCI   1
BAUDETTE       CLOUDY    16   9  74 SE10G16   29.73F WCI   4
WASKISH        FLURRIES  16  10  79 E10       29.75F WCI   3
CROOKSTON      CLOUDY    18  12  79 SE9       29.73F WCI   6
STEPHEN NDAWN    N/A     16  12  86 SE13        N/A  WCI   2
GREENBUSH NDAW   N/A     16  10  79 SE13        N/A  WCI   2
$$
  *****  WEATHER ACROSS CENTRAL AND WEST MINNESOTA  *****

CITY           SKY/WX    TMP DP  RH WIND       PRES   REMARKS
FOSSTON        CLOUDY    14   9  79 SE8       29.72F WCI   3
BEMIDJI        CLOUDY    15   9  78 SE16      29.73F WCI  -1
PARK RAPIDS    CLOUDY    15  10  80 SE10      29.74S WCI   2
ELBOW LAKE     CLOUDY    17  13  84 SE10      29.73F WCI   5
WADENA         PTCLDY    14   9  79 SE9       29.74F WCI   2
DETROIT LAKES  CLEAR     18  12  79 SE13      29.73F WCI   4
MOORHEAD       PTCLDY    18  14  86 SE13      29.73F WCI   4
FERGUS FALLS   PTCLDY    16  10  79 SE8       29.78S WCI   5
MORRIS MN      PTCLDY    18  12  79 SE10      29.74F WCI   6
STAPLES        CLOUDY    16  10  79 SE7       29.76S WCI   6
$$
  *****  WEATHER ELSEWHERE ACROSS MINNESOTA  *****

CITY           SKY/WX    TMP DP  RH WIND       PRES   REMARKS
DULUTH         CLOUDY    17  12  80 SE8       29.82S WCI   7
INTRNTL FALLS  CLOUDY    16   9  74 SE9       29.78F WCI   4
ELY            CLOUDY    18  14  86 E3        29.81F
CLOQUET        FLURRIES  16  10  79 E7        29.82F WCI   6
WHEATON        PTCLDY    16  12  86 SE10      29.75F WCI   3
BRAINERD       CLOUDY    15  11  83 SE8       29.78F WCI   4
HIBBING        CLOUDY    17  11  77 SE8       29.80F WCI   7
ALEXANDRIA     MOCLDY    16  12  84 SE9       29.75S WCI   4
SAINT CLOUD    CLOUDY    20  14  77 E7        29.80F WCI  11
MINNEAPOLIS    MOCLDY    22  17  81 SE7       29.83R WCI  13
$$

  *****  WEATHER ACROSS SOUTH DAKOTA  *****

CITY           SKY/WX    TMP DP  RH WIND       PRES   REMARKS
SIOUX FALLS    PTCLDY    25  23  92 E7        29.67F WCI  17
BROOKINGS      NOT AVBL
WATERTOWN      MOCLDY    16  14  92 E8        29.66F WCI   5
HURON          CLEAR     26  22  84 E5        29.64S WCI  20
SISSETON         N/A     16  14  92 S16       29.70F WCI   1
ABERDEEN       MOCLDY    17  12  80 E6        29.64F WCI   9
MITCHELL       CLEAR     30  26  85 E7        29.65F WCI  23
PIERRE         CLEAR     27  24  89 E9        29.55F WCI  18
MOBRIDGE       PTCLDY    23  19  85 SE13      29.51F WCI  11
RAPID CITY     PTCLDY    51  23  33 W9        29.56F
$$

  *****  SOME WEATHER IN NEARBY STATES *****

CITY           SKY/WX    TMP DP  RH WIND       PRES   REMARKS
GLASGOW MT     CLOUDY    29  25  85 NW10      29.45R WCI  20
GREAT FALLS MT CLOUDY    10   7  87 N15       29.50S WCI  -7
CHEYENNE WY    MOCLDY    51  13  21 W18       29.83F
SCOTTSBLUFF NE CLOUDY    44  22  41 N3        29.73S
OMAHA NE       CLOUDY    44  32  62 S8        29.67F
DES MOINES IA  CLEAR     40  30  67 SE8       29.74F
DAVENPORT IA   PTCLDY    33  28  81 S15       29.86F WCI  23
CHICAGO IL     CLOUDY    32  26  78 S14       29.94F WCI  22
EAU CLAIRE WI  CLOUDY    23  16  74 E7        29.85F WCI  15
LA CROSSE WI   FAIR      28  19  69 SE8       29.87F WCI  20
$$

  *****  SOME NATIONAL WEATHER *****

CITY           SKY/WX    TMP DP  RH WIND       PRES   REMARKS
LA GUARDIA NY  PTCLDY    31  13  47 NW9       30.26R WCI  23
RALEIGH NC     PTCLDY    32  23  69 CALM      30.32R
ATLANTA GA     CLEAR     40  19  43 S3        30.28S
NEW ORLEANS LA CLEAR     52  43  71 SE6       30.30S
OKLAHOMA CITY  PTCLDY    58  43  57 S13       29.88S
ALBUQUERQUE NM CLEAR     53  19  26 SE3       30.10S
SALT LAKE CITY PTCLDY    58  15  18 S14       29.82F
LOS ANGELES CA PTCLDY    66  52  60 W7        29.89F
BOISE ID       CLOUDY    54  30  40 CALM      29.65F
SEATTLE WA     LGT RAIN  38  36  92 NE9       29.49S FOG
$$

*** WEATHER ACROSS MANITOBA...SASKATCHEWAN AND ONTARIO ***
                ***ONTARIO***

CITY           SKY/WX    TMP DP  RH WIND       PRES   REMARKS
GERALDTON      MOCLDY    -6  -9  84 CALM      29.97F
THUNDER BAY    LGT SNOW  16  12  86 NE10      29.95F WCI   3
SIOUX LOOKOUT  CLOUDY     7  -2  66 SE3       29.86F
TORONTO        CLOUDY    23  14  68 W10       30.20F WCI  12
BIG TROUT LK   PTCLDY   -18 -24  76 W2        30.01F
PICKLE LAKE    PTCLDY    -4  -9  77 E6        29.92F WCI -16
DRYDEN         CLOUDY    10   1  67 E8        29.82F WCI  -1
KENORA         LGT SNOW   9   3  78 E10       29.76F WCI  -6
$$
                *** MANITOBA***

CITY           SKY/WX    TMP DP  RH WIND       PRES   REMARKS
BRANDON        LGT SNOW   7   3  85 E16       29.64F DRFTSNOWWCI -11
DAUPHIN        LGT SNOW   7   5  92 E13       29.72F VSB 1   WCI  -9
ISLAND LAKE    CLOUDY    -9 -17  70 E2        29.96F
PILOT MOUND      N/A     10   7  85 SE14G20     N/A  WCI  -5
THE PAS        FLURRIES  -6 -11  77 E6        29.89F WCI -18
THOMPSON       CLOUDY   -13 -18  77 VRB2      29.98F
WINNIPEG       LGT SNOW  12   7  79 E14       29.74F WCI  -3
LYNN LAKE      CLOUDY   -11 -17  77 NW6       29.93F WCI -25
CHURCHILL      CLEAR    -17 -22  76 W9        29.97S WCI -36
GILLAM         MOCLDY   -17 -22  76 W5        29.99F WCI -29
$$
                ***SASKATCHEWAN***

CITY           SKY/WX    TMP DP  RH WIND       PRES   REMARKS
ESTEVAN        NOT AVBL
KINDERSLEY     LGT SNOW   0  -6  78 NW13      29.64R DRFTSNOWWCI -18
LLOYDMINSTER   FLURRIES  -6 -11  77 N9        29.68F WCI -22
PRINCE ALBERT  LGT SNOW  -4  -9  77 NE12      29.73F DRFTSNOWWCI -22
REGINA         FLURRIES  12   9  85 SE12      29.50F WCI  -2
YORKTON        FLURRIES   3   0  85 E16       29.60F WCI -16
N. BATTLEFORD  CLOUDY    -2  -8  78 N9        29.70S WCI -18
LA RONGE       LGT SNOW  -6 -11  77 NE12      29.88F WCI -24
SASKATOON      FLURRIES   0  -6  78 NE16      29.65F WCI -21
SWIFT CURRENT  LGT SNOW   3   1  92 W22       29.53R WCI -19
$$
NOTE: THESE ARE AUTOMATED STATIONS WITH LIMITED QUALITY CONTROL
      "FAIR" INDICATES FEW OR NO CLOUDS BELOW 12,000 FEET WITH NO
      SIGNIFICANT WEATHER AND/OR OBSTRUCTIONS TO VISIBILITY.
      SKY/WX - SKY CONDITION AND SIGNIFICANT WEATHER.
      TMP - AIR TEMPERATURE.    DP   - DEWPOINT TEMPERATURE.
      RH  - RELATIVE HUMIDITY.  PRES - PRESSURE.
      HX  - HEAT INDEX.         WCI  - WIND CHILL INDEX.
$



USA.gov is the U.S. government's official web portal to all federal, state and local government web resources and services.